• Join FlightAware (Why Join?)
  • Login
  • US Flag 
11:17AM EDT


 

Airport Tracker/Info


-or-


 

Live Flight TrackerFlight Track Log ✈ LOG6844 ✈ 09-Jan-2014 ✈ EGEC / CAL - EGPF / GLA

Flight Track Log - Related Links

Times and Time Zones

All times are in EST time to prevent confusion due to time zone crossing. See the LOG6844 flight status page for this flight to view local times or setup timezone preferences in your user account.

Time Position Orientation Groundspeed Altitude Reporting Facility
EST Latitude Longitude Course Direction KTS MPH feet Rate Location/Type
05:03AM 55.4673 -5.6502 63° Northeast 1 1 3,300  Level FlightAware UK
05:03AM 55.4719 -5.6345 63° Northeast 1 1 3,600 960 Climbing FlightAware UK
05:04AM 55.4790 -5.6210 47° Northeast 1 1 3,900 960 Climbing FlightAware UK
05:04AM 55.4849 -5.6094 48° Northeast 1 1 4,200 1,140 Climbing FlightAware UK
05:04AM 55.4911 -5.5965 50° Northeast 1 1 4,600 960 Climbing FlightAware UK
05:05AM 55.4977 -5.5833 49° Northeast 1 1 4,800 660 Climbing FlightAware UK
05:05AM 55.5043 -5.5666 55° Northeast 1 1 5,000 660 Climbing FlightAware UK
05:05AM 55.5107 -5.5525 51° Northeast 1 1 5,200 480 Climbing FlightAware UK
05:05AM 55.5186 -5.5389 44° Northeast 1 1 5,300 120 Climbing FlightAware UK
05:06AM 55.5302 -5.5186 45° Northeast 1 1 5,300 -180 Level FlightAware UK
05:06AM 55.5400 -5.5014 45° Northeast 1 1 5,200  Descending FlightAware UK
05:06AM 55.5486 -5.4833 50° Northeast 1 1 5,300  Climbing FlightAware UK
05:07AM 55.5563 -5.4641 55° Northeast 1 1 5,200 -180 Descending FlightAware UK
05:07AM 55.5634 -5.4445 57° Northeast 1 1 5,200  Level FlightAware UK
05:07AM 55.5713 -5.4262 53° Northeast 1 1 5,200  Level FlightAware UK
05:08AM 55.5803 -5.4097 46° Northeast 1 1 5,200  Level FlightAware UK
05:08AM 55.5893 -5.3939 45° Northeast 1 1 5,200 -180 Level FlightAware UK
05:08AM 55.5987 -5.3790 42° Northeast 1 1 5,100  Descending FlightAware UK
05:09AM 55.6098 -5.3684 28° Northeast 1 1 5,200 60 Climbing FlightAware UK
05:09AM 55.6292 -5.3418 38° Northeast 1 1 5,200  Level FlightAware UK
05:09AM 55.6384 -5.3258 45° Northeast 1 1 5,200  Level FlightAware UK
05:10AM 55.6479 -5.3105 42° Northeast 1 1 5,200  Level FlightAware UK
05:10AM 55.6570 -5.2948 44° Northeast 1 1 5,200  Level FlightAware UK
05:10AM 55.6666 -5.2800 41° Northeast 1 1 5,200  Level FlightAware UK
05:11AM 55.6846 -5.2487 44° Northeast 1 1 5,200  Level FlightAware UK
05:11AM 55.6925 -5.2310 52° Northeast 1 1 5,200 120 Level FlightAware UK
05:12AM 55.7010 -5.2143 48° Northeast 1 1 5,300  Climbing FlightAware UK
05:12AM 55.7099 -5.1974 47° Northeast 1 1 5,200 -180 Descending FlightAware UK
05:12AM 55.7181 -5.1796 50° Northeast 1 1 5,200  Level FlightAware UK
05:13AM 55.7289 -5.1551 52° Northeast 1 1 5,200  Level FlightAware UK
05:13AM 55.7375 -5.1373 49° Northeast 1 1 5,200  Level FlightAware UK
05:14AM 55.7606 -5.0915 48° Northeast 1 1 5,200  Level FlightAware UK
05:14AM 55.7684 -5.0734 53° Northeast 1 1 5,200  Level FlightAware UK
05:14AM 55.7736 -5.0510 67° East 1 1 5,200 120 Level FlightAware UK
05:15AM 55.7797 -5.0297 63° Northeast 1 1 5,300 -180 Climbing FlightAware UK
05:15AM 55.7856 -5.0085 63° Northeast 1 1 5,100  Descending FlightAware UK
05:15AM 55.7917 -4.9872 63° Northeast 1 1 5,300 120 Climbing FlightAware UK
05:15AM 55.7978 -4.9658 63° Northeast 1 1 5,200 -180 Descending FlightAware UK
05:16AM 55.8039 -4.9442 63° Northeast 1 1 5,200  Level FlightAware UK
05:16AM 55.8098 -4.9227 64° Northeast 1 1 5,200 -360 Level FlightAware UK
05:16AM 55.8161 -4.9012 62° Northeast 1 1 5,000 -720 Descending FlightAware UK
05:17AM 55.8226 -4.8791 63° Northeast 1 1 4,800 -540 Descending FlightAware UK
05:17AM 55.8294 -4.8568 61° Northeast 1 1 4,700 -360 Descending FlightAware UK
05:17AM 55.8362 -4.8348 61° Northeast 1 1 4,600 -540 Descending FlightAware UK
05:18AM 55.8424 -4.8121 64° Northeast 1 1 4,400 -720 Descending FlightAware UK
05:18AM 55.8472 -4.7884 70° East 1 1 4,200 -720 Descending FlightAware UK
05:18AM 55.8521 -4.7638 71° East 1 1 4,000 -840 Descending FlightAware UK
05:18AM 55.8549 -4.7377 79° East 1 1 3,700 -900 Descending FlightAware UK
05:19AM 55.8584 -4.7023 80° East 1 1 3,400 -720 Descending FlightAware UK
05:19AM 55.8616 -4.6760 78° East 1 1 3,200 -540 Descending FlightAware UK
05:19AM 55.8645 -4.6496 79° East 1 1 3,100 -540 Descending FlightAware UK
05:20AM 55.8677 -4.6241 77° East 1 1 2,900 -720 Descending FlightAware UK
05:20AM 55.8708 -4.5991 77° East 1 1 2,700 -900 Descending FlightAware UK
05:20AM 55.8757 -4.5661 75° East 1 1 2,300 -900 Descending FlightAware UK
05:21AM 55.8801 -4.5412 72° East 1 1 2,100 -720 Descending FlightAware UK
05:21AM 55.8844 -4.5168 73° East 1 1 1,900 -720 Descending FlightAware UK
05:21AM 55.8888 -4.4924 72° East 1 1 1,700 -900 Descending FlightAware UK
05:22AM 55.8947 -4.4651 69° East 1 1 1,300 -720 Descending FlightAware UK
05:22AM 55.8987 -4.4482 67° East 1 1 1,200 -360 Descending FlightAware UK
05:22AM 55.9022 -4.4351 64° Northeast 1 1 1,100 -720 Descending FlightAware UK
05:23AM 55.9002 -4.4207 104° East 1 1 800 -540 Descending FlightAware UK
05:23AM 55.8953 -4.4103 131° Southeast 1 1 800 -360 Level FlightAware UK
05:23AM 55.8889 -4.4068 163° South 1 1 600 -600 Descending FlightAware UK
05:24AM 55.8819 -4.4144 211° Southwest 1 1 400 -300 Descending FlightAware UK
05:24AM 55.8776 -4.4215 223° Southwest 1 1 400  Level FlightAware UK
05:26AM 55.8719 -4.4331 229° Southwest  Level Estimated